Regional Weather Roundup
Issued by NWS

Home | Current Version | Previous Version | Text Only | Print | Product List | Glossary On
Versions: 1 2 3 4 5 6 7 8 9 10 11 12 13 14 15 16 17 18 19 20 21 22 23 24 25 26 27 28 29 30 31 32 33 34 35 36 37 38 39 40 41 42 43 44 45 46 47 48 49 50
000
ASUS44 KMEG 250410
RWRTN
TENNESSEE HOURLY STATE WEATHER ROUNDUP
NATIONAL WEATHER SERVICE MEMPHIS TN
1100 PM CDT SUN MAY 24 2015

TNZ002-004-019-021-049-052-054-088>092-250500-
WEST TENNESSEE

CITY           SKY/WX    TMP DP  RH WIND       PRES   REMARKS
MEMPHIS INTL   LGT RAIN  70  66  87 S9        30.02S
NWS MEMPHIS      N/A     68 N/A N/A MISG        N/A
JACKSON        CLOUDY    69  66  90 S6        30.06F
DYERSBURG      CLOUDY    70  54  56 SE7       30.04S
PARIS          CLOUDY    70  64  83 S8        30.08S
LEXINGTON      MOCLDY    70  66  88 S7        30.08S
$$

TNZ008-025-027-028-033-062-065-066-250500-
NORTH MIDDLE TENNESSEE

CITY           SKY/WX    TMP DP  RH WIND       PRES   REMARKS
NASHVILLE      MOCLDY    71  66  84 S8        30.14S
CLARKSVILLE    CLOUDY    72  66  81 SE9       30.10S
SMYRNA         CLOUDY    71  67  87 S7        30.16S
COOKEVILLE     MOCLDY    73  59  60 S9        30.19S
CROSSVILLE     MOCLDY    71  54  54 SE7G17    30.25S
$$

TNZ061-075-076-078-094-096-097-250500-
SOUTH MIDDLE TENNESSEE

CITY           SKY/WX    TMP DP  RH WIND       PRES   REMARKS
FAYETTEVILLE   CLEAR    N/A N/A N/A MISG      30.17F
TULLAHOMA      MOCLDY    68  64  88 SE7       30.19F
WINCHESTER     MOCLDY    70  64  83 SE7       30.19F
MCMINNVILLE    MOCLDY    75  61  60 VRB7      30.19F
COLUMBIA       PTCLDY    72  66  83 S6        30.12F
SHELBYVILLE    PTCLDY    72  68  88 S8        30.17F
$$

TNZ017-018-042-046-047-250500-
NORTHEAST TENNESSEE

CITY           SKY/WX    TMP DP  RH WIND       PRES   REMARKS
TRI CITIES     PTCLDY    66  51  58 CALM      30.28F
ELIZABETHTON   CLEAR     59  52  77 CALM      30.30F
$$

TNZ012-013-036-069-073-074-250500-
CENTRAL EAST TENNESSEE

CITY           SKY/WX    TMP DP  RH WIND       PRES   REMARKS
KNOXVILLE      PTCLDY    73  51  46 S6        30.23S
OAK RIDGE      PTCLDY    69  55  60 CALM      30.25S
GATLINBURG     CLEAR     64  52  63 E3        30.23F
MORRISTOWN     CLEAR     70  52  52 S3        30.26S
$$

TNZ083-085-099-250500-
SOUTHEAST TENNESSEE

CITY           SKY/WX    TMP DP  RH WIND       PRES   REMARKS
CHATTANOOGA    MOCLDY    75  58  55 SE8       30.22S
$$

SKY/WX REPORTED AS FAIR MEANS FEW OR NO CLOUDS BELOW
12 THOUSAND FEET.



USA.gov is the U.S. government's official web portal to all federal, state and local government web resources and services.